{"data":{"norad_id":67439,"intl_designator":"2026-007E","name":"HULIANWANG DIGUI-141","alt_names":[],"object_type":"PAYLOAD","status":"ACTIVE","operator":null,"country":"PRC","launch_date":"2026-01-13","launch_site_code":"WSC","launch_vehicle":null,"mission":null,"orbit_class":"UNKNOWN","rcs_meters":null,"size_class":null,"mass_kg":null,"dimensions":null,"purposes":[],"wikipedia_slug":null,"has_3d_model":false,"image_url":null,"decayed_at":null,"tle_current":{"epoch":"2026-09-20T22:13:24.873312Z","epoch_age_seconds":63580,"freshness":"FRESH","line1":"1 67439U 26007E   26263.92598233 -.00000105  00000+0  41596-4 0  9999","line2":"2 67439  50.0030 102.3665 0000396  29.3398 330.7497 13.29330585 33529","mean_motion":13.29330585,"eccentricity":3.96e-5,"inclination_deg":50.003,"raan_deg":102.3665,"arg_perigee_deg":29.3398,"mean_anomaly_deg":330.7497,"bstar":4.1596e-5,"rev_number":3352,"period_min":108.32519888196,"perigee_km":1148.9911771379,"apogee_km":1149.5873492979,"semimajor_km":7527.4262632179,"source":"CELESTRAK","updated_at":"2026-09-21T09:00:16.633659Z"}}}